Regional Weather Roundup
Issued by NWS

Home | Current Version | Previous Version | Text Only | Print | Product List | Glossary Off
Versions: 1 2 3 4 5 6 7 8 9 10 11 12 13 14 15 16 17 18 19 20 21 22 23 24 25 26 27 28 29 30 31 32 33 34 35 36 37 38 39 40 41 42 43 44 45 46 47 48 49 50

000
ASUS45 KBOI 190910
RWRID

IDAHO REGIONAL WEATHER ROUNDUP
NATIONAL WEATHER SERVICE BOISE ID
200 AM MST FRI JAN 19 2018

NOTE: "FAIR" INDICATES FEW OR NO CLOUDS BELOW 12000 FEET
WITH NO SIGNIFICANT WEATHER AND/OR OBSTRUCTIONS TO VISIBILITY

IDZ012-014-191000-
SOUTHWEST IDAHO


CITY           SKY/WX    TMP DP  RH WIND       PRES   REMARKS
BOISE          CLOUDY    38  36  92 S6        29.82F WCI  33
CALDWELL       LGT RAIN  39  38  96 SE5       29.84F
MOUNTAIN HOME  LGT RAIN  38  38 100 S5        29.83F WCI  34
$$

IDZ016-017-191000-
SOUTHCENTRAL IDAHO


CITY           SKY/WX    TMP DP  RH WIND       PRES   REMARKS
BURLEY         CLOUDY    39  34  82 W9G24     29.82S WCI  33
JEROME         LGT RAIN  37  36  96 SW12      29.83S WCI  29
TWIN FALLS     LGT RAIN  35  35 100 S12       29.85R WCI  27
$$

IDZ019>023-191000-
SOUTHEAST IDAHO


CITY           SKY/WX    TMP DP  RH WIND       PRES   REMARKS
IDAHO FALLS    CLOUDY    41  33  73 SW12      29.76R
POCATELLO      CLOUDY    42  33  70 W20G25    29.81R
REXBURG        CLOUDY    38  32  79 S7        29.75S WCI  33
$$

IDZ006-010-011-018-031-032-191000-
CENTRAL IDAHO MOUNTAINS


CITY           SKY/WX    TMP DP  RH WIND       PRES   REMARKS
MCCALL         CLOUDY    32  31  96 S9        29.72F WCI  24
HAILEY         CLOUDY    34  34 100 SE9       29.78F WCI  26
STANLEY          N/A     32  30  92 CALM      29.74F
SALMON         CLOUDY    34  33  96 E5        29.74S WCI  30
CHALLIS        CLOUDY    37  33  85 S10       29.74R WCI  30
$$

IDZ002-004-006-007-026-191000-
NORTHERN IDAHO


CITY           SKY/WX    TMP DP  RH WIND       PRES   REMARKS
LEWISTON       LGT RAIN  38  37  97 CALM      29.83F FOG
LOWELL           N/A     33  33 100 CALM      29.85S
COEUR D`ALENE  MOCLDY    35  33  92 S9        29.77F WCI  28
MULLAN PASS    SNOW      24  24 100 VRB5      29.67F VSB 1/2 WCI  18
$$



USA.gov is the U.S. government's official web portal to all federal, state and local government web resources and services.